TOM976P EGKK-EBBR

Flight info

Callsign TOM976P
Flight time 0h 35m
Altitude 23000
Route DVR L18 VABIK Q70 KOK
Aircraft B38M/M-SDE1FGHILORVWXY/HB1

Departure

Time 2026-05-06 19:17
Airport London Gatwick Airport (EGKK)

Arrival

Time 2026-05-06 19:53
Airport Brussels Airport (EBBR)
Time Latitude Longitude Altitude Speed Heading
2026-05-06 18:40 51.15284 -0.18879 207 ft 0 kts 258°
2026-05-06 18:59 51.15285 -0.18869 216 ft 4 kts 258°
2026-05-06 18:59 51.15290 -0.18833 217 ft 2 kts 258°
2026-05-06 18:59 51.15297 -0.18795 210 ft 4 kts 244°
2026-05-06 18:59 51.15312 -0.18763 215 ft 4 kts 211°
2026-05-06 19:00 51.15334 -0.18757 212 ft 4 kts 168°
2026-05-06 19:00 51.15354 -0.18764 207 ft 0 kts 168°
2026-05-06 19:07 51.15351 -0.18763 207 ft 2 kts 168°
2026-05-06 19:07 51.15304 -0.18746 211 ft 10 kts 168°
2026-05-06 19:07 51.15229 -0.18721 207 ft 12 kts 168°
2026-05-06 19:08 51.15148 -0.18707 210 ft 8 kts 204°
2026-05-06 19:08 51.15127 -0.18764 209 ft 10 kts 255°
2026-05-06 19:08 51.15106 -0.18922 210 ft 17 kts 258°
2026-05-06 19:08 51.15080 -0.19118 209 ft 19 kts 257°
2026-05-06 19:09 51.15054 -0.19303 211 ft 18 kts 257°
2026-05-06 19:09 51.15026 -0.19500 213 ft 19 kts 257°
2026-05-06 19:09 51.14995 -0.19720 208 ft 21 kts 257°
2026-05-06 19:09 51.14962 -0.19961 207 ft 23 kts 258°
2026-05-06 19:10 51.14926 -0.20224 215 ft 25 kts 257°
2026-05-06 19:10 51.14887 -0.20502 207 ft 21 kts 257°
2026-05-06 19:10 51.14855 -0.20736 211 ft 23 kts 258°
2026-05-06 19:10 51.14820 -0.20989 210 ft 24 kts 257°
2026-05-06 19:11 51.14776 -0.21238 207 ft 23 kts 256°
2026-05-06 19:11 51.14731 -0.21402 210 ft 0 kts 198°
2026-05-06 19:14 51.14731 -0.21403 210 ft 1 kts 198°
2026-05-06 19:14 51.14711 -0.21406 207 ft 6 kts 178°
2026-05-06 19:14 51.14659 -0.21358 214 ft 11 kts 135°
2026-05-06 19:14 51.14582 -0.21317 214 ft 13 kts 160°
2026-05-06 19:15 51.14521 -0.21212 210 ft 14 kts 99°
2026-05-06 19:15 51.14524 -0.21141 209 ft 0 kts 77°
2026-05-06 19:16 51.14525 -0.21136 218 ft 0 kts 77°
2026-05-06 19:16 51.14566 -0.20837 213 ft 66 kts 77°
2026-05-06 19:16 51.14711 -0.19798 211 ft 119 kts 78°
2026-05-06 19:17 51.14920 -0.18342 242 ft 148 kts 77°
2026-05-06 19:17 51.15149 -0.16721 597 ft 152 kts 77°
2026-05-06 19:17 51.15373 -0.15029 982 ft 158 kts 77°
2026-05-06 19:17 51.15595 -0.13296 1380 ft 163 kts 75°
2026-05-06 19:18 51.15830 -0.11467 1783 ft 170 kts 75°
2026-05-06 19:18 51.16098 -0.09584 2468 ft 179 kts 74°
2026-05-06 19:18 51.16380 -0.07579 3087 ft 193 kts 75°
2026-05-06 19:18 51.16682 -0.05396 3667 ft 209 kts 75°
2026-05-06 19:19 51.16884 -0.03006 4237 ft 226 kts 88°
2026-05-06 19:19 51.16850 -0.00410 4779 ft 244 kts 91°
2026-05-06 19:19 51.16797 0.02287 5182 ft 269 kts 91°
2026-05-06 19:19 51.16741 0.05266 6188 ft 270 kts 91°
2026-05-06 19:20 51.16685 0.08294 6897 ft 277 kts 91°
2026-05-06 19:20 51.16627 0.11367 6977 ft 277 kts 91°
2026-05-06 19:20 51.16570 0.14440 6982 ft 277 kts 91°
2026-05-06 19:20 51.16568 0.17499 6968 ft 277 kts 89°
2026-05-06 19:21 51.16577 0.20566 7068 ft 279 kts 89°
2026-05-06 19:21 51.16582 0.23611 8152 ft 274 kts 89°
2026-05-06 19:21 51.16585 0.26705 8861 ft 285 kts 89°
2026-05-06 19:21 51.16585 0.29909 9545 ft 289 kts 89°
2026-05-06 19:22 51.16587 0.33145 10360 ft 297 kts 89°
2026-05-06 19:22 51.16591 0.36532 10874 ft 313 kts 89°
2026-05-06 19:22 51.16593 0.39936 11280 ft 331 kts 89°
2026-05-06 19:22 51.16595 0.43606 11662 ft 349 kts 89°
2026-05-06 19:23 51.16595 0.47569 12011 ft 367 kts 89°
2026-05-06 19:23 51.16594 0.51721 12409 ft 381 kts 89°
2026-05-06 19:23 51.16592 0.55988 12890 ft 391 kts 89°
2026-05-06 19:23 51.16588 0.60364 13685 ft 393 kts 89°
2026-05-06 19:24 51.16582 0.64752 14297 ft 398 kts 89°
2026-05-06 19:24 51.16575 0.69174 15094 ft 397 kts 89°
2026-05-06 19:24 51.16566 0.73534 16083 ft 391 kts 90°
2026-05-06 19:24 51.16555 0.77823 17138 ft 384 kts 90°
2026-05-06 19:25 51.16446 0.82055 18192 ft 379 kts 93°
2026-05-06 19:25 51.16306 0.86239 18834 ft 382 kts 92°
2026-05-06 19:25 51.16169 0.90511 19341 ft 387 kts 92°
2026-05-06 19:25 51.16034 0.94812 19954 ft 390 kts 92°
2026-05-06 19:26 51.15896 0.99159 20511 ft 394 kts 93°
2026-05-06 19:26 51.15760 1.03472 21081 ft 397 kts 93°
2026-05-06 19:26 51.15617 1.07893 21632 ft 400 kts 93°
2026-05-06 19:26 51.15473 1.12347 22197 ft 404 kts 93°
2026-05-06 19:27 51.15325 1.16832 22748 ft 407 kts 93°
2026-05-06 19:27 51.15174 1.21362 23016 ft 414 kts 93°
2026-05-06 19:27 51.15019 1.25970 22980 ft 417 kts 93°
2026-05-06 19:27 51.14862 1.30591 22993 ft 421 kts 93°
2026-05-06 19:28 51.14701 1.35253 22984 ft 432 kts 93°
2026-05-06 19:28 51.14533 1.40092 22981 ft 443 kts 93°
2026-05-06 19:28 51.14357 1.45049 22981 ft 453 kts 93°
2026-05-06 19:28 51.14177 1.50101 22980 ft 460 kts 93°
2026-05-06 19:29 51.13992 1.55230 22977 ft 465 kts 93°
2026-05-06 19:29 51.13804 1.60362 22989 ft 466 kts 94°
2026-05-06 19:29 51.13612 1.65528 22989 ft 466 kts 94°
2026-05-06 19:29 51.13419 1.70696 22992 ft 466 kts 94°
2026-05-06 19:30 51.13223 1.75837 22989 ft 466 kts 94°
2026-05-06 19:30 51.13025 1.81021 22991 ft 466 kts 94°
2026-05-06 19:30 51.12824 1.86174 22990 ft 466 kts 94°
2026-05-06 19:30 51.12645 1.90738 22992 ft 466 kts 94°
2026-05-06 19:31 51.12437 1.95994 22989 ft 466 kts 94°
2026-05-06 19:31 51.12229 2.01168 22990 ft 466 kts 94°
2026-05-06 19:31 51.11809 2.11477 22988 ft 466 kts 94°
2026-05-06 19:32 51.11596 2.16619 22986 ft 466 kts 94°
2026-05-06 19:32 51.11380 2.21780 22984 ft 466 kts 94°
2026-05-06 19:32 51.11162 2.26930 22982 ft 466 kts 94°
2026-05-06 19:32 51.10941 2.32084 22980 ft 466 kts 94°
2026-05-06 19:33 51.10722 2.37160 22979 ft 466 kts 94°
2026-05-06 19:33 51.10497 2.42322 22976 ft 466 kts 94°
2026-05-06 19:33 51.10269 2.47487 22969 ft 466 kts 95°
2026-05-06 19:33 51.10040 2.52631 22948 ft 467 kts 95°
2026-05-06 19:34 51.09810 2.57757 22781 ft 465 kts 95°
2026-05-06 19:34 51.09575 2.62892 22492 ft 464 kts 95°
2026-05-06 19:34 51.08957 2.67903 21861 ft 457 kts 110°
2026-05-06 19:34 51.07917 2.72667 21442 ft 455 kts 109°
2026-05-06 19:35 51.06950 2.77373 20963 ft 452 kts 109°
2026-05-06 19:35 51.06289 2.80572 20620 ft 450 kts 109°
2026-05-06 19:35 51.05426 2.84733 20170 ft 447 kts 109°
2026-05-06 19:35 51.04451 2.89422 19662 ft 442 kts 109°
2026-05-06 19:36 51.03496 2.94004 19215 ft 427 kts 109°
2026-05-06 19:36 51.02581 2.98382 18764 ft 407 kts 109°
2026-05-06 19:36 51.01704 3.02569 18306 ft 390 kts 109°
2026-05-06 19:36 51.00862 3.06578 17805 ft 375 kts 109°
2026-05-06 19:37 51.00053 3.10427 17361 ft 360 kts 108°
2026-05-06 19:37 50.99273 3.14129 16943 ft 347 kts 108°
2026-05-06 19:37 50.98521 3.17693 16537 ft 336 kts 108°
2026-05-06 19:37 50.98032 3.20006 16262 ft 333 kts 108°
2026-05-06 19:38 50.97035 3.24713 15691 ft 339 kts 108°
2026-05-06 19:38 50.96280 3.28275 15292 ft 340 kts 108°
2026-05-06 19:38 50.95537 3.31768 14899 ft 339 kts 108°
2026-05-06 19:38 50.94784 3.35307 14493 ft 337 kts 108°
2026-05-06 19:39 50.94030 3.38840 14095 ft 338 kts 108°
2026-05-06 19:39 50.93276 3.42372 13665 ft 337 kts 108°
2026-05-06 19:39 50.92523 3.45889 13224 ft 335 kts 108°
2026-05-06 19:39 50.91777 3.49371 12793 ft 332 kts 108°
2026-05-06 19:40 50.91285 3.51660 12522 ft 329 kts 108°
2026-05-06 19:40 50.90552 3.55070 12137 ft 326 kts 108°
2026-05-06 19:40 50.89588 3.59551 11602 ft 322 kts 108°
2026-05-06 19:40 50.88869 3.62881 11216 ft 319 kts 108°
2026-05-06 19:41 50.88155 3.66183 10821 ft 316 kts 108°
2026-05-06 19:41 50.87673 3.68410 10570 ft 313 kts 108°
2026-05-06 19:41 50.86990 3.71558 10438 ft 297 kts 108°
2026-05-06 19:41 50.86342 3.74545 10309 ft 277 kts 108°
2026-05-06 19:42 50.85731 3.77353 10159 ft 264 kts 107°
2026-05-06 19:42 50.85128 3.80126 9900 ft 267 kts 107°
2026-05-06 19:42 50.84527 3.82882 9553 ft 264 kts 107°
2026-05-06 19:42 50.83930 3.85619 9182 ft 260 kts 107°
2026-05-06 19:43 50.83344 3.88299 8853 ft 254 kts 107°
2026-05-06 19:43 50.82769 3.90927 8538 ft 252 kts 108°
2026-05-06 19:43 50.82194 3.93552 8235 ft 253 kts 108°
2026-05-06 19:43 50.81626 3.96142 7927 ft 252 kts 108°
2026-05-06 19:44 50.81052 3.98755 7613 ft 251 kts 108°
2026-05-06 19:44 50.80479 4.01356 7309 ft 250 kts 108°
2026-05-06 19:44 50.79910 4.03944 6998 ft 249 kts 108°
2026-05-06 19:44 50.79346 4.06500 6691 ft 241 kts 108°
2026-05-06 19:45 50.78812 4.08923 6422 ft 227 kts 108°
2026-05-06 19:45 50.78306 4.11213 6136 ft 215 kts 108°
2026-05-06 19:45 50.77824 4.13389 5850 ft 204 kts 107°
2026-05-06 19:45 50.77360 4.15487 5589 ft 207 kts 107°
2026-05-06 19:46 50.76870 4.17698 5351 ft 216 kts 107°
2026-05-06 19:46 50.76368 4.19962 5079 ft 219 kts 107°
2026-05-06 19:46 50.75862 4.22237 4807 ft 219 kts 107°
2026-05-06 19:46 50.75368 4.24463 4652 ft 217 kts 107°
2026-05-06 19:47 50.74869 4.26706 4549 ft 217 kts 107°
2026-05-06 19:47 50.74367 4.28960 4452 ft 217 kts 107°
2026-05-06 19:47 50.73867 4.31202 4323 ft 216 kts 107°
2026-05-06 19:47 50.73366 4.33447 4194 ft 216 kts 107°
2026-05-06 19:48 50.72870 4.35673 4047 ft 215 kts 107°
2026-05-06 19:48 50.72381 4.37903 3890 ft 214 kts 103°
2026-05-06 19:48 50.72386 4.40187 3581 ft 205 kts 68°
2026-05-06 19:48 50.73176 4.41943 3308 ft 193 kts 37°
2026-05-06 19:49 50.74253 4.43043 3107 ft 175 kts 24°
2026-05-06 19:49 50.75342 4.43695 2904 ft 160 kts 15°
2026-05-06 19:49 50.76395 4.44154 2713 ft 156 kts 14°
2026-05-06 19:49 50.77446 4.44585 2513 ft 156 kts 14°
2026-05-06 19:50 50.78491 4.45010 2348 ft 155 kts 14°
2026-05-06 19:50 50.79538 4.45435 2130 ft 154 kts 14°
2026-05-06 19:50 50.80578 4.45855 1920 ft 154 kts 15°
2026-05-06 19:50 50.81602 4.46270 1711 ft 154 kts 15°
2026-05-06 19:51 50.82648 4.46695 1488 ft 153 kts 15°
2026-05-06 19:51 50.83672 4.47104 1302 ft 154 kts 15°
2026-05-06 19:51 50.84706 4.47514 1080 ft 151 kts 15°
2026-05-06 19:51 50.85701 4.47910 805 ft 144 kts 14°
2026-05-06 19:52 50.86666 4.48308 622 ft 143 kts 15°
2026-05-06 19:52 50.87620 4.48717 414 ft 141 kts 14°
2026-05-06 19:52 50.88574 4.49097 253 ft 141 kts 14°
2026-05-06 19:52 50.89498 4.49470 186 ft 121 kts 15°
2026-05-06 19:53 50.90083 4.49710 186 ft 54 kts 14°
2026-05-06 19:53 50.90384 4.49832 188 ft 43 kts 14°
2026-05-06 19:53 50.90647 4.49928 189 ft 34 kts
2026-05-06 19:53 50.90831 4.49902 186 ft 16 kts 347°
2026-05-06 19:54 50.90860 4.49875 192 ft 0 kts 300°
2026-05-06 19:54 50.90862 4.49871 191 ft 2 kts 300°
2026-05-06 19:54 50.90854 4.49784 184 ft 13 kts 243°
2026-05-06 19:55 50.90773 4.49722 187 ft 14 kts 194°
2026-05-06 19:55 50.90667 4.49679 186 ft 17 kts 194°
2026-05-06 19:55 50.90547 4.49630 187 ft 19 kts 195°
2026-05-06 19:55 50.90443 4.49581 188 ft 14 kts 190°
2026-05-06 19:56 50.90342 4.49547 188 ft 16 kts 194°
2026-05-06 19:56 50.90228 4.49500 187 ft 18 kts 194°
2026-05-06 19:56 50.90098 4.49447 185 ft 20 kts 194°
2026-05-06 19:56 50.90009 4.49340 189 ft 14 kts 248°
2026-05-06 19:57 50.89969 4.49187 191 ft 16 kts 251°
2026-05-06 19:57 50.89927 4.49040 189 ft 5 kts 245°
2026-05-06 19:57 50.89908 4.48975 184 ft 8 kts 248°
2026-05-06 19:57 50.89913 4.48893 192 ft 8 kts 327°
2026-05-06 19:58 50.89970 4.48849 187 ft 3 kts 336°
2026-05-06 19:58 50.89980 4.48842 185 ft 2 kts 335°
2026-05-06 19:58 50.89983 4.48839 186 ft 0 kts 335°